Location: Del Amo
(33.8464°N, 118.2104°W)
Time: 18:11:22
(UTC+00:00)

Vanguard 3 - Pass Details

Date: 16 September 2024
Orbit: 507 x 3224 km, 33.4° (Epoch: 05 October)

Event Time Altitude Azimuth Distance (km) Brightness Sun altitude
Rises 10:39:40 0° 189° (S) 5,668 - -35.7°
Exits shadow 10:44:03 - 176° (S) 5,129 11.0 -34.9°
Reaches altitude 10° 10:44:26 10° 175° (S) 5,092 10.9 -34.9°
Maximum altitude 10:55:12 22° 131° (SE) 4,843 11.2 -33.0°
Drops below altitude 10° 11:07:51 10° 90° (E) 6,149 12.3 -30.6°
Sets 11:14:23 0° 78° (ENE) 7,144 13.1 -29.4°
